TimeCST,TemperatureF,Dew PointF,Humidity,Sea Level PressureIn,VisibilityMPH,Wind Direction,Wind SpeedMPH,Gust SpeedMPH,PrecipitationIn,Events,Conditions,WindDirDegrees,DateUTC
12:15 AM,46.4,44.6,93,29.80,3.0,NE,6.9,-,N/A,,Overcast,40,2012-12-09 06:15:00
12:35 AM,46.4,44.6,93,29.80,3.0,NE,8.1,-,N/A,,Overcast,50,2012-12-09 06:35:00
12:55 AM,46.4,44.6,93,29.80,3.0,NE,8.1,-,N/A,,Overcast,40,2012-12-09 06:55:00
1:15 AM,46.4,44.6,93,29.80,3.0,NNE,8.1,-,N/A,,Overcast,30,2012-12-09 07:15:00
1:35 AM,46.4,44.6,93,29.79,3.0,North,9.2,-,N/A,,Overcast,10,2012-12-09 07:35:00
1:55 AM,46.4,44.6,93,29.80,3.0,North,12.7,-,N/A,,Overcast,10,2012-12-09 07:55:00
2:15 AM,46.4,44.6,93,29.80,3.0,North,11.5,-,N/A,,Overcast,10,2012-12-09 08:15:00
2:35 AM,46.4,44.6,93,29.79,3.0,North,8.1,-,N/A,,Overcast,10,2012-12-09 08:35:00
2:55 AM,46.4,44.6,93,29.80,3.0,North,9.2,-,N/A,,Overcast,10,2012-12-09 08:55:00
3:15 AM,46.4,44.6,93,29.80,3.0,NNE,6.9,-,N/A,,Overcast,20,2012-12-09 09:15:00
3:35 AM,46.4,44.6,93,29.80,3.0,NNE,9.2,-,N/A,,Overcast,30,2012-12-09 09:35:00
3:55 AM,46.4,44.6,93,29.80,4.0,North,6.9,-,N/A,,Overcast,10,2012-12-09 09:55:00
4:15 AM,46.4,44.6,93,29.80,3.0,North,5.8,-,N/A,Rain,Light Rain,10,2012-12-09 10:15:00
4:35 AM,46.4,44.6,93,29.80,3.0,North,8.1,-,N/A,Rain,Light Rain,350,2012-12-09 10:35:00
4:55 AM,46.4,44.6,93,29.81,3.0,North,6.9,-,N/A,,Overcast,350,2012-12-09 10:55:00
5:15 AM,46.4,44.6,93,29.82,3.0,NNW,10.4,-,N/A,,Overcast,340,2012-12-09 11:15:00
5:35 AM,46.4,44.6,93,29.83,3.0,NNW,11.5,-,N/A,,Overcast,340,2012-12-09 11:35:00
5:55 AM,44.6,42.8,93,29.84,4.0,NNW,17.3,-,N/A,,Overcast,340,2012-12-09 11:55:00
6:15 AM,44.6,41.0,87,29.84,5.0,NNW,18.4,-,N/A,,Overcast,340,2012-12-09 12:15:00
6:35 AM,44.6,41.0,87,29.85,5.0,North,19.6,23.0,N/A,,Overcast,350,2012-12-09 12:35:00
6:55 AM,44.6,39.2,81,29.86,6.0,North,15.0,25.3,N/A,,Haze,350,2012-12-09 12:55:00
7:15 AM,44.6,39.2,81,29.87,6.0,North,16.1,-,N/A,,Haze,360,2012-12-09 13:15:00
7:35 AM,44.6,39.2,81,29.87,5.0,North,15.0,-,N/A,,Haze,360,2012-12-09 13:35:00
7:55 AM,44.6,39.2,81,29.88,5.0,North,13.8,-,N/A,,Haze,350,2012-12-09 13:55:00
8:15 AM,44.6,39.2,81,29.88,5.0,North,16.1,-,N/A,,Haze,350,2012-12-09 14:15:00
8:35 AM,44.6,35.6,71,29.89,8.0,North,15.0,-,N/A,,Overcast,350,2012-12-09 14:35:00
8:55 AM,42.8,33.8,70,29.90,9.0,North,21.9,26.5,N/A,,Overcast,350,2012-12-09 14:55:00
9:15 AM,42.8,32.0,66,29.91,10.0,North,17.3,24.2,N/A,,Overcast,360,2012-12-09 15:15:00
9:35 AM,42.8,32.0,66,29.92,10.0,North,16.1,25.3,N/A,,Overcast,360,2012-12-09 15:35:00
9:55 AM,44.6,32.0,61,29.94,10.0,North,17.3,26.5,N/A,,Overcast,350,2012-12-09 15:55:00
10:15 AM,44.6,30.2,57,29.95,10.0,North,21.9,28.8,N/A,,Overcast,350,2012-12-09 16:15:00
10:35 AM,44.6,28.4,53,29.96,10.0,North,25.3,28.8,N/A,,Overcast,360,2012-12-09 16:35:00
10:55 AM,44.6,28.4,53,29.97,10.0,North,23.0,29.9,N/A,,Overcast,360,2012-12-09 16:55:00
11:15 AM,44.6,28.4,53,29.97,10.0,NNW,23.0,27.6,N/A,,Overcast,340,2012-12-09 17:15:00
11:35 AM,44.6,28.4,53,29.98,10.0,North,19.6,27.6,N/A,,Overcast,350,2012-12-09 17:35:00
11:55 AM,44.6,28.4,53,29.98,10.0,North,24.2,29.9,N/A,,Overcast,350,2012-12-09 17:55:00
12:15 PM,44.6,24.8,46,29.97,10.0,North,26.5,32.2,N/A,,Overcast,350,2012-12-09 18:15:00
12:35 PM,44.6,23.0,43,29.98,10.0,NNW,27.6,33.4,N/A,,Overcast,330,2012-12-09 18:35:00
12:55 PM,42.8,21.2,42,29.98,10.0,NNW,25.3,29.9,N/A,,Overcast,330,2012-12-09 18:55:00
1:15 PM,41.0,19.4,42,29.99,10.0,NW,23.0,28.8,N/A,,Overcast,320,2012-12-09 19:15:00
1:35 PM,41.0,17.6,39,30.00,10.0,NNW,21.9,28.8,N/A,,Overcast,330,2012-12-09 19:35:00
1:55 PM,41.0,15.8,36,30.01,10.0,NNW,23.0,31.1,N/A,,Overcast,330,2012-12-09 19:55:00
2:15 PM,39.2,14.0,36,30.01,10.0,NW,21.9,32.2,N/A,,Overcast,320,2012-12-09 20:15:00
2:35 PM,39.2,14.0,36,30.01,10.0,NW,24.2,32.2,N/A,,Overcast,320,2012-12-09 20:35:00
2:55 PM,37.4,14.0,38,30.02,10.0,NNW,24.2,32.2,N/A,,Mostly Cloudy,330,2012-12-09 20:55:00
3:15 PM,37.4,10.4,33,30.03,10.0,NNW,27.6,-,N/A,,Overcast,330,2012-12-09 21:15:00
3:35 PM,37.4,10.4,33,30.04,10.0,NNW,23.0,-,N/A,,Overcast,340,2012-12-09 21:35:00
3:55 PM,37.4,10.4,33,30.04,10.0,NNW,24.2,29.9,N/A,,Overcast,340,2012-12-09 21:55:00
4:15 PM,35.6,8.6,33,30.05,10.0,NNW,21.9,-,N/A,,Overcast,340,2012-12-09 22:15:00
4:35 PM,32.0,8.6,38,30.06,10.0,NNW,26.5,32.2,N/A,,Overcast,340,2012-12-09 22:35:00
4:55 PM,32.0,8.6,38,30.06,10.0,NNW,21.9,31.1,N/A,,Overcast,330,2012-12-09 22:55:00
5:15 PM,32.0,8.6,38,30.07,10.0,NNW,23.0,31.1,N/A,,Overcast,330,2012-12-09 23:15:00
5:35 PM,32.0,8.6,38,30.08,10.0,NNW,23.0,29.9,N/A,,Overcast,330,2012-12-09 23:35:00
5:55 PM,30.2,8.6,40,30.08,10.0,NNW,27.6,33.4,N/A,,Overcast,330,2012-12-09 23:55:00
6:15 PM,28.4,8.6,43,30.10,10.0,NNW,19.6,-,N/A,,Mostly Cloudy,330,2012-12-10 00:15:00
6:35 PM,28.4,6.8,40,30.10,10.0,NNW,20.7,25.3,N/A,,Partly Cloudy,330,2012-12-10 00:35:00
6:55 PM,28.4,6.8,40,30.10,10.0,NNW,19.6,-,N/A,,Clear,330,2012-12-10 00:55:00
7:15 PM,28.4,6.8,40,30.11,10.0,NNW,17.3,-,N/A,,Clear,340,2012-12-10 01:15:00
7:35 PM,28.4,6.8,40,30.11,10.0,NNW,21.9,-,N/A,,Mostly Cloudy,340,2012-12-10 01:35:00
7:55 PM,28.4,6.8,40,30.13,10.0,NNW,18.4,27.6,N/A,,Mostly Cloudy,330,2012-12-10 01:55:00
8:15 PM,30.2,6.8,37,30.13,10.0,NNW,21.9,-,N/A,,Clear,330,2012-12-10 02:15:00
8:35 PM,30.2,6.8,37,30.14,10.0,NNW,21.9,-,N/A,,Mostly Cloudy,330,2012-12-10 02:35:00
8:55 PM,30.2,6.8,37,30.14,10.0,NNW,25.3,32.2,N/A,,Overcast,340,2012-12-10 02:55:00
9:15 PM,30.2,6.8,37,30.14,10.0,NNW,23.0,29.9,N/A,,Overcast,340,2012-12-10 03:15:00
9:35 PM,30.2,6.8,37,30.14,10.0,NNW,27.6,35.7,N/A,,Overcast,340,2012-12-10 03:35:00
9:55 PM,30.2,6.8,37,30.15,10.0,NNW,21.9,28.8,N/A,,Overcast,340,2012-12-10 03:55:00
10:15 PM,28.4,6.8,40,30.16,10.0,NNW,26.5,35.7,N/A,,Overcast,330,2012-12-10 04:15:00
10:35 PM,28.4,6.8,40,30.16,10.0,NNW,20.7,33.4,N/A,,Overcast,340,2012-12-10 04:35:00
10:55 PM,28.4,6.8,40,30.15,10.0,NNW,25.3,31.1,N/A,,Scattered Clouds,340,2012-12-10 04:55:00
11:15 PM,26.6,6.8,43,30.16,10.0,NNW,20.7,25.3,N/A,,Mostly Cloudy,330,2012-12-10 05:15:00
11:35 PM,26.6,8.6,47,30.16,10.0,NNW,21.9,29.9,N/A,,Mostly Cloudy,330,2012-12-10 05:35:00
11:55 PM,24.8,8.6,50,30.16,10.0,NNW,19.6,26.5,N/A,,Partly Cloudy,340,2012-12-10 05:55:00